Temp_Advection
nan nan nan nan nan nan nan nan nan nan nan nan nan nan nan nan nan nan nan nan nan nan
nan -0 -0 -0 -0 -0 -0 -0 0 0 -0 -1 -0 1 0 1 1 0 1 1 -0 nan
nan -0 -0 -0 -0 -0 -0 0 0 -0 -0 0 -0 -0 1 1 -0 1 1 0 1 nan
nan -0 -0 0 -0 -0 -0 0 0 -0 -0 0 -0 0 0 0 1 1 -0 -0 1 nan
nan -0 -0 -0 0 -0 -0 -0 0 0 0 0 -0 -0 -0 1 1 -1 -1 1 2 nan
nan -0 -0 -0 -0 -0 -0 -0 0 0 0 -0 -0 -0 1 0 -1 -0 1 2 1 nan
nan -0 -0 -0 -0 -0 -0 -0 -0 0 0 0 0 0 0 -1 0 1 1 0 -0 nan
nan -0 -0 -0 -0 -0 -0 -0 -0 -0 -0 0 0 -0 -0 0 -0 -0 0 0 -0 nan
nan -1 -1 -1 -1 -1 -1 -1 -1 -1 -1 -0 -0 0 1 -0 -0 -0 -0 0 0 nan
nan -1 -1 -1 -1 -1 -1 -1 -1 -1 -1 -1 -1 0 -1 -0 0 -0 0 0 0 nan
nan -1 -1 -1 -1 -0 0 -0 -0 -0 0 -0 -1 0 -0 -1 -1 -0 -0 1 1 nan
nan -0 -0 -0 -1 -0 0 0 0 -0 -0 -0 -0 -0 -0 -0 -1 -1 0 -0 -0 nan
nan 0 0 0 0 -0 0 -0 -0 -0 -0 -0 -0 -0 -0 -0 -0 -1 -1 -0 -0 nan
nan nan nan nan nan nan nan nan nan nan nan nan nan nan nan nan nan nan nan nan nan nan
Wind_Speed
21 21 22 24 26 24 25 27 24 21 23 18 16 19 30 37 36 48 49 47 56 65
19 18 16 14 18 22 20 26 22 27 30 32 31 26 28 26 31 49 52 48 55 58
18 17 17 17 17 17 21 17 19 24 27 29 31 32 32 30 33 40 48 48 43 56
14 15 14 16 16 18 17 15 15 22 25 27 30 32 36 37 39 27 48 48 46 54
8 10 12 12 14 16 18 16 15 20 25 25 27 28 33 42 41 40 40 36 45 51
11 13 15 16 17 18 18 17 18 21 21 27 26 29 33 36 40 46 49 45 47 51
12 16 17 18 18 19 19 19 19 19 24 25 28 31 33 39 40 41 54 45 48 47
15 18 20 20 19 18 18 18 20 22 24 27 30 31 33 34 40 43 42 39 52 52
14 18 21 22 20 19 18 18 17 17 22 27 30 34 37 32 36 41 43 43 40 39
16 20 24 26 24 20 19 19 19 20 19 21 24 28 33 38 34 37 45 42 41 40
20 23 26 28 29 26 23 22 23 22 20 20 24 26 25 31 38 34 35 41 44 38
21 24 28 29 30 30 26 23 22 22 21 20 20 21 25 28 29 35 34 33 39 36
20 21 24 25 27 30 28 24 22 21 20 18 17 15 19 29 28 30 34 38 32 36
19 22 23 23 25 26 28 23 20 19 19 18 15 13 11 14 22 22 24 31 34 31
Wind_Direction
292 286 279 283 283 279 272 264 252 258 262 263 268 266 243 232 243 233 226 230 219 215
283 293 295 291 286 284 280 267 260 250 250 246 243 244 255 241 240 225 223 223 219 221
290 293 295 294 287 287 274 269 255 251 251 256 249 246 237 254 254 241 228 232 235 226
291 300 298 291 288 279 280 273 256 252 254 254 249 241 242 239 242 242 236 232 235 226
315 320 316 309 304 297 291 285 278 259 255 253 249 246 241 239 236 228 226 238 238 220
326 326 331 332 321 318 316 305 282 267 261 252 253 252 246 244 246 236 235 227 240 231
330 336 339 336 330 327 318 306 291 274 262 254 243 245 247 246 240 246 235 243 237 233
342 343 341 340 340 335 325 313 302 291 277 265 250 237 239 246 244 238 236 235 238 233
350 347 346 343 342 343 338 328 316 301 286 277 269 254 241 239 244 238 232 232 230 237
355 353 353 354 351 347 341 334 326 317 303 289 280 269 244 236 243 237 225 238 229 227
353 351 355 356 356 348 343 338 330 321 310 288 286 278 264 238 235 238 231 226 230 224
353 351 351 350 350 349 340 333 328 324 317 303 289 277 260 240 241 235 236 240 233 233
336 337 338 340 340 341 340 330 327 326 323 313 300 296 271 237 240 240 232 228 231 226
333 331 325 329 331 332 332 329 328 327 330 328 320 304 299 237 229 232 225 222 226 227
Height
1435 1431 1426 1425 1428 1425 1422 1424 1429 1427 1435 1435 1433 1435 1435 1434 1439 1440 1449 1453 1456 1461
1431 1425 1422 1417 1419 1418 1412 1419 1411 1419 1421 1429 1422 1425 1434 1432 1434 1434 1439 1445 1448 1452
1421 1418 1415 1414 1414 1411 1417 1410 1407 1411 1418 1418 1418 1414 1422 1427 1431 1431 1432 1436 1442 1443
1415 1414 1410 1412 1410 1410 1410 1401 1400 1404 1406 1408 1410 1409 1412 1414 1422 1426 1427 1429 1433 1436
1409 1412 1411 1407 1405 1405 1400 1390 1393 1397 1399 1400 1400 1400 1404 1407 1411 1413 1416 1423 1427 1428
1407 1409 1406 1400 1398 1394 1387 1387 1387 1388 1389 1391 1392 1392 1396 1398 1400 1403 1406 1407 1416 1421
1405 1403 1399 1396 1392 1387 1385 1383 1382 1382 1382 1382 1383 1385 1387 1390 1389 1392 1394 1398 1401 1408
1400 1397 1394 1391 1387 1383 1381 1378 1376 1374 1373 1373 1373 1374 1376 1378 1380 1382 1385 1388 1391 1396
1397 1394 1391 1387 1383 1379 1376 1374 1371 1369 1366 1363 1361 1362 1366 1368 1370 1372 1374 1378 1383 1386
1392 1390 1386 1382 1378 1374 1371 1368 1365 1362 1359 1357 1354 1353 1353 1358 1360 1363 1359 1368 1374 1381
1390 1387 1384 1380 1375 1371 1367 1363 1359 1356 1353 1350 1347 1345 1344 1346 1349 1352 1354 1358 1365 1370
1388 1386 1382 1378 1373 1368 1363 1359 1355 1351 1347 1343 1340 1337 1335 1337 1339 1342 1344 1350 1354 1362
1386 1383 1380 1377 1373 1368 1361 1356 1351 1346 1342 1338 1333 1331 1328 1328 1328 1331 1338 1343 1345 1352
1382 1379 1376 1372 1369 1364 1359 1353 1348 1343 1338 1334 1329 1326 1322 1321 1322 1324 1329 1334 1339 1343